DB0BQ-11 Weather Reports


time (UTC)temp
C
wind
direction
speed
KPH
gust
KPH
rain 1hr
cm
rain 24hr
cm
rain mn
cm
humidity
%
barometer
mb
20260507043030 7 216 3.2 6.4 0.00 0.00 0.00 96 1012.4
20260507042028 7 206 3.2 6.4 0.00 0.00 0.00 96 1012.4
20260507041026 7 210 3.2 4.8 0.00 0.00 0.00 96 1012.3
20260507040024 7 203 3.2 6.4 0.00 0.00 0.00 96 1012.3
20260507035022 7 214 3.2 6.4 0.00 0.00 0.00 96 1012.3
20260507034019 7 206 3.2 4.8 0.00 0.00 0.00 96 1012.2
20260507033017 7 213 3.2 6.4 0.00 0.00 0.00 96 1012.2
20260507032055 7 215 3.2 4.8 0.00 0.00 0.00 96 1012.0
20260507031033 7 209 3.2 4.8 0.00 0.00 0.00 96 1012.0
20260507030031 7 204 3.2 6.4 0.00 0.00 0.00 96 1011.9
20260507025209 7 220 3.2 4.8 0.00 0.00 0.00 95 1011.8
20260507024026 7 215 3.2 6.4 0.00 0.00 0.00 95 1011.8
20260507023025 7 213 3.2 4.8 0.00 0.00 0.00 95 1011.7
20260507022022 7 217 3.2 6.4 0.00 0.00 0.00 95 1011.7
20260507021020 7 216 1.6 6.4 0.00 0.00 0.00 95 1011.8
20260507020018 7 211 1.6 4.8 0.00 0.00 0.00 95 1011.7
20260507015116 7 222 3.2 4.8 0.00 0.00 0.00 96 1011.5
20260507014033 7 210 3.2 8.0 0.00 0.00 0.00 97 1011.5
20260507013031 7 217 3.2 4.8 0.00 0.00 0.00 97 1011.5
20260507012029 7 218 3.2 4.8 0.00 0.00 0.00 96 1011.5
20260507011027 7 217 3.2 6.4 0.00 0.00 0.00 96 1011.4
20260507010025 7 208 3.2 4.8 0.00 0.00 0.00 96 1011.4
20260507005043 7 218 3.2 4.8 0.00 0.00 0.00 96 1011.2
20260507004021 7 223 3.2 6.4 0.00 0.00 0.00 96 1011.2
20260507003019 7 219 3.2 4.8 0.00 0.00 0.00 95 1011.3
20260507002016 7 210 3.2 4.8 0.00 0.00 0.00 95 1011.2
20260507001034 7 223 1.6 4.8 0.00 0.00 0.00 95 1011.2
20260507000032 7 225 1.6 6.4 0.00 0.00 0.00 95 1011.3
20260506235030 7 211 3.2 6.4 0.00 0.00 0.00 94 1011.3
20260506234048 8 217 1.6 4.8 0.00 0.00 0.00 95 1011.2
20260506233025 8 220 3.2 4.8 0.00 0.00 0.00 94 1011.1
20260506232023 8 218 3.2 4.8 0.00 0.00 0.00 94 1011.0
20260506231041 8 209 1.6 4.8 0.00 0.00 0.00 94 1011.0
20260506230039 8 219 1.6 8.0 0.00 0.00 0.00 95 1011.0
20260506225017 8 218 3.2 4.8 0.00 0.00 0.00 95 1010.9
20260506224035 8 221 1.6 4.8 0.00 0.00 0.00 95 1010.8
20260506223032 8 213 3.2 4.8 0.00 0.00 0.00 96 1010.8
20260506222030 8 217 3.2 4.8 0.00 0.00 0.00 96 1010.7
20260506221048 8 220 3.2 4.8 0.00 0.00 0.00 96 1010.7
20260506220026 8 217 3.2 6.4 0.00 0.00 0.00 96 1010.7
20260506215044 8 218 3.2 4.8 0.00 0.00 0.00 96 1010.7
20260506214022 8 214 3.2 6.4 0.00 0.00 0.00 96 1010.6
20260506213020 8 218 3.2 6.4 0.00 0.00 0.00 96 1010.5
20260506212017 8 235 4.8 9.7 0.00 0.00 0.00 95 1010.6
20260506211016 8 234 3.2 6.4 0.00 0.00 0.00 96 1010.5
20260506210033 8 231 3.2 9.7 0.00 0.00 0.00 96 1010.5
20260506205031 8 223 3.2 9.7 0.00 0.00 0.00 96 1010.4
20260506204049 8 231 4.8 14.5 0.00 0.00 0.00 96 1010.3
20260506203027 8 216 3.2 6.4 0.00 0.00 0.00 97 1010.3
20260506202024 8 206 3.2 6.4 0.00 0.00 0.00 97 1010.3
20260506201022 8 210 3.2 6.4 0.00 0.00 0.00 97 1010.3
20260506200020 8 212 3.2 4.8 0.00 0.00 0.00 96 1010.1
20260506195018 8 219 3.2 6.4 0.00 0.00 0.00 96 1009.9
20260506194056 8 237 3.2 6.4 0.00 0.00 0.00 96 1009.9
20260506193034 8 220 3.2 11.3 0.00 0.00 0.00 96 1010.0
20260506192051 8 216 3.2 8.0 0.00 0.00 0.00 96 1009.9
20260506191029 8 233 3.2 12.9 0.00 0.00 0.00 96 1009.7
20260506190027 8 218 3.2 9.7 0.00 0.00 0.00 96 1009.6
20260506185025 8 222 3.2 8.0 0.00 0.00 0.00 96 1009.5
20260506184023 8 216 3.2 9.7 0.00 0.00 0.00 96 1009.4
20260506183021 8 222 3.2 9.7 0.00 0.00 0.00 96 1009.3
20260506182019 8 230 8.0 12.9 0.00 0.00 0.00 95 1009.2
20260506181016 8 224 6.4 14.5 0.00 0.00 0.00 95 1009.1
20260506180035 8 242 8.0 16.1 0.00 0.00 0.00 95 1008.9
20260506175032 8 232 6.4 17.7 0.00 0.00 0.00 95 1008.8
20260506174030 8 225 4.8 14.5 0.00 0.00 0.00 95 1008.7
20260506173048 8 223 4.8 12.9 0.00 0.00 0.00 95 1008.6
20260506172026 8 237 8.0 16.1 0.00 0.00 0.00 95 1008.5
20260506171023 8 234 8.0 16.1 0.00 0.00 0.00 95 1008.4
20260506170041 8 231 8.0 12.9 0.00 0.00 0.00 95 1008.3
20260506165019 8 237 11.3 22.5 0.00 0.00 0.00 96 1008.4
20260506164017 8 234 9.7 19.3 0.00 0.00 0.00 97 1008.4
20260506163035 8 246 6.4 16.1 0.00 0.00 0.00 97 1008.3
20260506162033 8 231 4.8 12.9 0.00 0.00 0.00 97 1008.2
20260506161030 9 235 4.8 9.7 0.00 0.00 0.00 98 1008.2
20260506160028 8 238 4.8 16.1 0.00 0.00 0.00 97 1008.3
20260506155026 9 238 8.0 14.5 0.00 0.00 0.00 98 1008.2
20260506154024 9 227 3.2 11.3 0.00 0.00 0.00 98 1008.2
20260506153022 9 226 4.8 12.9 0.00 0.00 0.00 98 1008.2
20260506152020 8 224 3.2 11.3 0.00 0.00 0.00 98 1008.1
20260506151018 8 230 3.2 9.7 0.00 0.00 0.00 98 1008.0
20260506150016 8 220 3.2 8.0 0.00 0.00 0.00 98 1008.0
20260506145034 8 235 6.4 14.5 0.00 0.00 0.00 99 1007.9
20260506144031 8 229 6.4 9.7 0.00 0.00 0.00 98 1007.9
20260506143049 8 230 6.4 12.9 0.00 0.00 0.00 98 1007.8
20260506142027 8 233 6.4 14.5 0.00 0.00 0.00 98 1007.9
20260506141025 8 209 3.2 6.4 0.00 0.00 0.00 98 1007.9
20260506140023 8 225 6.4 11.3 0.00 0.00 0.00 97 1007.8
20260506135020 8 226 6.4 12.9 0.00 0.00 0.00 98 1007.9
20260506134018 8 227 4.8 11.3 0.00 0.00 0.00 97 1007.9
20260506133036 8 233 8.0 20.9 0.00 0.00 0.00 98 1007.8
20260506132034 8 230 6.4 11.3 0.00 0.00 0.00 98 1007.8
20260506131032 8 237 8.0 20.9 0.00 0.00 0.00 97 1007.7
20260506130030 8 236 4.8 14.5 0.00 0.00 0.00 98 1007.6
20260506125027 8 234 4.8 12.9 0.00 0.00 0.00 98 1007.6
20260506124025 8 216 4.8 12.9 0.00 0.00 0.00 98 1007.7
20260506123043 8 223 4.8 12.9 0.00 0.00 0.00 98 1007.6
20260506122021 8 223 4.8 12.9 0.00 0.00 0.00 98 1007.4
20260506121019 8 226 3.2 6.4 0.00 0.00 0.00 98 1007.4
20260506120017 8 219 4.8 9.7 0.00 0.00 0.00 99 1007.2
20260506115035 8 222 3.2 9.7 0.00 0.00 0.00 98 1007.2
20260506114032 8 234 8.0 19.3 0.00 0.00 0.00 99 1007.2
20260506113031 8 231 8.0 17.7 0.00 0.00 0.00 98 1007.1
20260506112028 8 229 4.8 14.5 0.00 0.00 0.00 98 1007.2
20260506111026 8 232 4.8 14.5 0.00 0.00 0.00 98 1007.2
20260506110024 8 235 8.0 14.5 0.00 0.00 0.00 97 1007.1
20260506105022 8 229 4.8 14.5 0.00 0.00 0.00 97 1007.1
20260506104019 8 232 4.8 16.1 0.00 0.00 0.00 98 1006.9
20260506103038 8 233 8.0 19.3 0.00 0.00 0.00 98 1006.9
20260506102015 8 228 6.4 16.1 0.00 0.00 0.00 98 1006.8
20260506101033 8 230 6.4 14.5 0.00 0.00 0.00 98 1006.7
20260506100031 8 211 4.8 12.9 0.00 0.00 0.00 98 1006.7
20260506095029 8 224 4.8 12.9 0.00 0.00 0.00 98 1006.6
20260506094047 8 232 6.4 16.1 0.00 0.00 0.00 98 1006.5
20260506093025 8 232 3.2 12.9 0.00 0.00 0.00 98 1006.4
20260506092022 9 235 3.2 9.7 0.00 0.00 0.00 99 1006.3
20260506091020 9 195 3.2 9.7 0.00 0.00 0.00 99 1006.0
20260506090018 9 243 3.2 6.4 0.00 0.00 0.00 99 1006.2
20260506085016 9 218 3.2 8.0 0.00 0.00 0.00 99 1006.1
20260506084034 9 238 4.8 14.5 0.00 0.00 0.00 98 1006.0
20260506083032 9 239 3.2 16.1 0.00 0.00 0.00 99 1006.0
20260506082030 9 205 3.2 9.7 0.00 0.00 0.00 99 1006.0
20260506081028 9 219 4.8 11.3 0.00 0.00 0.00 99 1005.9
20260506073019 9 227 4.8 9.7 0.00 0.00 0.00 99 1005.7
20260506072037 9 236 8.0 12.9 0.00 0.00 0.00 99 1005.8
20260506071035 9 229 6.4 12.9 0.00 0.00 0.00 99 1005.7
20260506062024 9 234 6.4 16.1 0.00 0.00 0.00 99 1005.5
20260506061022 9 207 3.2 8.0 0.00 0.00 0.00 99 1005.4
20260506051109 9 229 3.2 9.7 0.00 0.00 0.00 99 1005.4
20260506045044 9 217 1.6 4.8 0.00 0.00 0.00 99 1005.3
20260506044022 9 229 6.4 14.5 0.00 0.00 0.00 99 1005.2